METEOR 2-8 DEB

Satellite information

Favourite Embed

Satellite Type and Status

DEBRISIN ORBIT

Key statistics

Satellite METEOR 2-8 DEB at a glance.

Uptime

15750

Days in orbit

Revolutions

≈ 14.3

Per day

Orbit

LEO

Low Earth Orbit

Inclination

82.5

Latest

Satellite identification and parameters

Extended collection of information and parameters for METEOR 2-8 DEB.

Object identification

Identified? True

Debris? True

Object name: METEOR 2-8 DEB

International designator: 1982-025Y

Object number (NORAD): 36338

Object ID (CCSDS): 36338

Country: COMMONWEALTH OF INDEPENDENT STATES (CIS)

Current information (Y/N): Y

RCS size: SMALL

Orbital parameters

Period: 100.889 minutes

Inclination: 82.5284 deg

SMA: 7178.892 km

Apoapsis: 812.86 km

Periapsis: 788.654 km

RAAN: 166.1933 deg

Eccentricy: 0.0016859

Argument of periapsis: 195.3267 deg

Mean anomaly: 164.7409 deg

Mean motion: 14.27304408 rev/day

Mean motion (dot): 0.000076 rev/day2

B* drag term: 0.003094 1/REarth

Two-line elements (TLE)

Creation date: May 3, 2025, 6:56 a.m.

Reference frame: TEME

Reference center: EARTH

Epoch: May 2, 2025, 8:25 p.m. UTC

TLE line 0: 0 METEOR 2-8 DEB

TLE line 1: 1 36338U 82025Y 25122.85084236 .00007600 00000-0 30940-2 0 9999

TLE line 2: 2 36338 82.5284 166.1933 0016859 195.3267 164.7409 14.27304408120811

Live tracking on map

Real-time ground track for satellite METEOR 2-8 DEB.

In-orbit conjunctions

A list of the most updated potential collisions computed for object METEOR 2-8 DEB.

Target Orbit TCA Probability of collision Miss distance Type
PSLV R/B SSO 2024-08-17 07:05:07 0.0002474483 296.0 (m) ROCKET BODY
CZ-6A DEB SSO 2024-07-17 13:38:16 0.0001848229 109.0 (m) DEBRIS
NOAA 16 DEB SSO 2024-07-06 10:47:45 0.0002368188 115.0 (m) DEBRIS
NOAA 16 DEB SSO 2024-06-08 06:35:38 0.0001425333 132.0 (m) DEBRIS

Associated space launch

Second generation soviet meteorological satellite

METEOR 2-8 DEB was lifted into orbit during the mission ‘Tsiklon-3 | Meteor-2 8’, on board a Tsiklon-3 space rocket.

The launch took place on March 25, 1982, 9:50 a.m. from 32/1.

For more information about the launch, click the button.

Launch to space Tsiklon-3 | Meteor-2 8
Tsiklon-3 | Meteor-2 8

Agency: N/A

Status: Launch Successful

Launch date: March 25, 1982, 9:50 a.m. UTC

Rocket: Tsiklon-3

Launch pad: 32/1

Location: Plesetsk Cosmodrome, Russian Federation

...

Latest news about this satellite

There are no fresh news available about this satellite. Check back as we update our databases every day.


Newsletter sign-up

Weekly statistics, charts and insights to help you stay on top of the space industry.